N2MZ KSFO-KVNY

Flight info

Callsign N2MZ
Flight time 0h 59m
Altitude 35000
Route SAHEY4 KTINA CISKO RDHOT IVINS2
Aircraft C25B/M-SDE2E3FGHRWXY/LB1

Departure

Time 2026-04-20 23:33
Airport San Francisco International Airport (KSFO)

Arrival

Time 2026-04-21 00:33
Airport Van Nuys Airport (KVNY)
Time Latitude Longitude Altitude Speed Heading
2026-04-20 23:13 37.62766 -122.38310 12 ft 0 kts 297°
2026-04-20 23:21 37.62771 -122.38318 12 ft 5 kts 314°
2026-04-20 23:21 37.62783 -122.38272 11 ft 12 kts 131°
2026-04-20 23:21 37.62715 -122.38248 11 ft 10 kts 207°
2026-04-20 23:21 37.62664 -122.38283 11 ft 7 kts 207°
2026-04-20 23:22 37.62630 -122.38305 11 ft 4 kts 214°
2026-04-20 23:22 37.62614 -122.38339 11 ft 6 kts 266°
2026-04-20 23:22 37.62639 -122.38413 12 ft 10 kts 300°
2026-04-20 23:22 37.62675 -122.38494 14 ft 11 kts 298°
2026-04-20 23:23 37.62713 -122.38585 14 ft 12 kts 298°
2026-04-20 23:23 37.62753 -122.38682 16 ft 12 kts 298°
2026-04-20 23:23 37.62793 -122.38776 20 ft 12 kts 298°
2026-04-20 23:23 37.62834 -122.38872 21 ft 14 kts 296°
2026-04-20 23:24 37.62882 -122.38989 19 ft 16 kts 298°
2026-04-20 23:24 37.62937 -122.39123 20 ft 18 kts 294°
2026-04-20 23:24 37.63003 -122.39281 14 ft 23 kts 297°
2026-04-20 23:24 37.63054 -122.39459 14 ft 18 kts 273°
2026-04-20 23:25 37.63056 -122.39511 13 ft 0 kts 269°
2026-04-20 23:25 37.63055 -122.39530 13 ft 3 kts 266°
2026-04-20 23:25 37.63038 -122.39600 12 ft 12 kts 236°
2026-04-20 23:26 37.62977 -122.39654 11 ft 11 kts 193°
2026-04-20 23:26 37.62909 -122.39646 11 ft 9 kts 156°
2026-04-20 23:26 37.62858 -122.39583 11 ft 13 kts 119°
2026-04-20 23:26 37.62815 -122.39481 12 ft 13 kts 119°
2026-04-20 23:27 37.62789 -122.39391 15 ft 7 kts 69°
2026-04-20 23:27 37.62793 -122.39380 16 ft 0 kts 52°
2026-04-20 23:32 37.62797 -122.39375 16 ft 6 kts 45°
2026-04-20 23:32 37.62849 -122.39311 17 ft 10 kts 68°
2026-04-20 23:32 37.62836 -122.39242 18 ft 7 kts 120°
2026-04-20 23:33 37.62713 -122.38952 18 ft 96 kts 114°
2026-04-20 23:33 37.62258 -122.37734 391 ft 196 kts 112°
2026-04-20 23:33 37.61769 -122.36108 1683 ft 196 kts 119°
2026-04-20 23:33 37.61055 -122.34656 2706 ft 195 kts 130°
2026-04-20 23:34 37.60285 -122.33123 3279 ft 220 kts 123°
2026-04-20 23:34 37.59611 -122.31352 4049 ft 225 kts 122°
2026-04-20 23:34 37.58883 -122.29608 4893 ft 227 kts 123°
2026-04-20 23:34 37.58172 -122.27801 5663 ft 231 kts 122°
2026-04-20 23:35 37.57455 -122.25991 6462 ft 230 kts 124°
2026-04-20 23:35 37.55486 -122.22907 7783 ft 227 kts 143°
2026-04-20 23:35 37.54318 -122.21551 8501 ft 229 kts 144°
2026-04-20 23:36 37.53131 -122.20204 9203 ft 231 kts 144°
2026-04-20 23:36 37.51928 -122.18832 9883 ft 234 kts 145°
2026-04-20 23:36 37.50714 -122.17466 10541 ft 235 kts 144°
2026-04-20 23:36 37.49504 -122.16067 11103 ft 239 kts 144°
2026-04-20 23:37 37.48270 -122.14667 11734 ft 237 kts 144°
2026-04-20 23:37 37.47016 -122.13354 12297 ft 238 kts 147°
2026-04-20 23:37 37.45733 -122.12013 12859 ft 241 kts 146°
2026-04-20 23:37 37.44444 -122.10663 13427 ft 243 kts 146°
2026-04-20 23:38 37.43137 -122.09294 13957 ft 245 kts 146°
2026-04-20 23:38 37.41826 -122.07918 14428 ft 247 kts 146°
2026-04-20 23:38 37.40499 -122.06534 14897 ft 249 kts 146°
2026-04-20 23:38 37.39168 -122.05138 15383 ft 251 kts 147°
2026-04-20 23:39 37.37814 -122.03730 15862 ft 253 kts 147°
2026-04-20 23:39 37.36462 -122.02312 16318 ft 255 kts 147°
2026-04-20 23:39 37.35089 -122.00927 16766 ft 255 kts 150°
2026-04-20 23:39 37.33623 -121.99669 17207 ft 257 kts 152°
2026-04-20 23:40 37.32165 -121.98360 17671 ft 259 kts 151°
2026-04-20 23:40 37.30688 -121.97043 18106 ft 261 kts 152°
2026-04-20 23:40 37.29200 -121.95718 18514 ft 263 kts 152°
2026-04-20 23:40 37.27696 -121.94386 18889 ft 265 kts 152°
2026-04-20 23:41 37.26189 -121.93051 19280 ft 267 kts 152°
2026-04-20 23:41 37.24657 -121.91693 19655 ft 270 kts 153°
2026-04-20 23:41 37.23122 -121.90333 20027 ft 272 kts 152°
2026-04-20 23:41 37.21588 -121.88972 20414 ft 274 kts 153°
2026-04-20 23:42 37.20022 -121.87589 20763 ft 276 kts 153°
2026-04-20 23:42 37.18447 -121.86195 21149 ft 278 kts 153°
2026-04-20 23:42 37.16858 -121.84791 21517 ft 281 kts 153°
2026-04-20 23:42 37.15253 -121.83370 21847 ft 284 kts 153°
2026-04-20 23:43 37.13637 -121.81946 22200 ft 285 kts 153°
2026-04-20 23:43 37.12007 -121.80505 22509 ft 288 kts 153°
2026-04-20 23:43 37.10363 -121.79055 22825 ft 289 kts 153°
2026-04-20 23:43 37.08714 -121.77602 23165 ft 291 kts 153°
2026-04-20 23:44 37.07048 -121.76135 23492 ft 294 kts 153°
2026-04-20 23:44 37.05371 -121.74658 23771 ft 296 kts 153°
2026-04-20 23:44 37.03708 -121.73190 24024 ft 297 kts 153°
2026-04-20 23:44 37.02015 -121.71702 24324 ft 297 kts 153°
2026-04-20 23:45 37.00322 -121.70213 24557 ft 300 kts 153°
2026-04-20 23:45 36.98601 -121.68703 24795 ft 302 kts 153°
2026-04-20 23:45 36.96882 -121.67194 25041 ft 304 kts 153°
2026-04-20 23:45 36.95148 -121.65666 25281 ft 305 kts 153°
2026-04-20 23:46 36.93411 -121.64144 25541 ft 306 kts 153°
2026-04-20 23:46 36.91661 -121.62612 25800 ft 308 kts 153°
2026-04-20 23:46 36.89898 -121.61068 26056 ft 310 kts 152°
2026-04-20 23:46 36.88157 -121.59541 26291 ft 311 kts 153°
2026-04-20 23:47 36.86387 -121.57991 26547 ft 312 kts 152°
2026-04-20 23:47 36.84607 -121.56436 26791 ft 314 kts 153°
2026-04-20 23:47 36.82810 -121.54863 27020 ft 315 kts 152°
2026-04-20 23:47 36.81012 -121.53290 27283 ft 315 kts 152°
2026-04-20 23:48 36.79224 -121.51729 27594 ft 314 kts 153°
2026-04-20 23:48 36.77429 -121.50163 27897 ft 314 kts 152°
2026-04-20 23:48 36.75650 -121.48609 28181 ft 312 kts 153°
2026-04-20 23:48 36.73892 -121.47081 28485 ft 312 kts 153°
2026-04-20 23:49 36.72111 -121.45527 28814 ft 312 kts 152°
2026-04-20 23:49 36.70329 -121.43975 29120 ft 312 kts 153°
2026-04-20 23:49 36.68544 -121.42420 29441 ft 312 kts 153°
2026-04-20 23:49 36.66765 -121.40878 29763 ft 312 kts 153°
2026-04-20 23:50 36.64982 -121.39324 30089 ft 312 kts 152°
2026-04-20 23:50 36.63204 -121.37780 30366 ft 312 kts 152°
2026-04-20 23:50 36.61424 -121.36234 30654 ft 312 kts 153°
2026-04-20 23:50 36.59640 -121.34688 30937 ft 312 kts 152°
2026-04-20 23:51 36.57859 -121.33141 31225 ft 313 kts 153°
2026-04-20 23:51 36.56098 -121.31615 31524 ft 312 kts 152°
2026-04-20 23:51 36.54315 -121.30072 31821 ft 312 kts 153°
2026-04-20 23:51 36.52529 -121.28525 32127 ft 313 kts 152°
2026-04-20 23:52 36.50744 -121.26981 32426 ft 313 kts 153°
2026-04-20 23:52 36.48961 -121.25438 32735 ft 313 kts 152°
2026-04-20 23:52 36.47167 -121.23888 33048 ft 314 kts 152°
2026-04-20 23:52 36.45498 -121.22100 33352 ft 322 kts 142°
2026-04-20 23:53 36.44054 -121.19929 33670 ft 330 kts 132°
2026-04-20 23:53 36.42912 -121.17411 33982 ft 339 kts 122°
2026-04-20 23:53 36.42092 -121.14684 34254 ft 343 kts 117°
2026-04-20 23:53 36.41345 -121.11865 34532 ft 349 kts 110°
2026-04-20 23:54 36.40818 -121.08929 34815 ft 348 kts 111°
2026-04-20 23:54 36.40248 -121.06020 34972 ft 345 kts 116°
2026-04-20 23:54 36.39209 -121.03377 34972 ft 338 kts 131°
2026-04-20 23:54 36.37692 -121.01199 34976 ft 331 kts 146°
2026-04-20 23:55 36.35807 -120.99611 34983 ft 325 kts 159°
2026-04-20 23:55 36.31693 -120.97299 34998 ft 335 kts 155°
2026-04-20 23:56 36.27768 -120.94053 35004 ft 343 kts 152°
2026-04-20 23:56 36.23817 -120.90653 35011 ft 348 kts 152°
2026-04-20 23:57 36.19808 -120.87233 35021 ft 351 kts 152°
2026-04-20 23:57 36.15791 -120.83803 35020 ft 354 kts 152°
2026-04-20 23:58 36.11730 -120.80339 35022 ft 356 kts 152°
2026-04-20 23:58 36.07643 -120.76864 35019 ft 357 kts 152°
2026-04-20 23:59 36.03518 -120.73359 34737 ft 366 kts 152°
2026-04-20 23:59 36.01399 -120.71562 34454 ft 373 kts 152°
2026-04-20 23:59 35.99261 -120.69751 34113 ft 374 kts 152°
2026-04-20 23:59 35.97127 -120.67929 33727 ft 373 kts 152°
2026-04-21 00:00 35.94993 -120.66119 33339 ft 371 kts 152°
2026-04-21 00:00 35.92873 -120.64324 32951 ft 370 kts 152°
2026-04-21 00:00 35.90774 -120.62551 32572 ft 369 kts 152°
2026-04-21 00:00 35.88665 -120.60764 32192 ft 367 kts 152°
2026-04-21 00:01 35.86538 -120.58969 31814 ft 366 kts 152°
2026-04-21 00:01 35.84466 -120.57216 31447 ft 365 kts 152°
2026-04-21 00:01 35.82375 -120.55451 31087 ft 364 kts 152°
2026-04-21 00:02 35.78307 -120.52012 31036 ft 344 kts 152°
2026-04-21 00:02 35.74435 -120.48754 30902 ft 333 kts 153°
2026-04-21 00:02 35.72520 -120.47152 30677 ft 334 kts 153°
2026-04-21 00:03 35.70590 -120.45530 30459 ft 340 kts 153°
2026-04-21 00:03 35.68632 -120.43885 30174 ft 350 kts 152°
2026-04-21 00:03 35.66599 -120.42177 29838 ft 358 kts 152°
2026-04-21 00:03 35.64525 -120.40434 29474 ft 365 kts 152°
2026-04-21 00:04 35.62418 -120.38666 29126 ft 369 kts 152°
2026-04-21 00:04 35.60290 -120.36877 28786 ft 372 kts 152°
2026-04-21 00:04 35.58208 -120.34943 28435 ft 379 kts 145°
2026-04-21 00:04 35.56245 -120.32784 28098 ft 379 kts 146°
2026-04-21 00:05 35.54206 -120.30726 27762 ft 380 kts 147°
2026-04-21 00:05 35.52173 -120.28644 27424 ft 381 kts 146°
2026-04-21 00:05 35.50162 -120.26518 27092 ft 382 kts 146°
2026-04-21 00:05 35.48173 -120.24425 26768 ft 381 kts 146°
2026-04-21 00:06 35.46145 -120.22324 26441 ft 381 kts 146°
2026-04-21 00:06 35.44123 -120.20229 26122 ft 381 kts 146°
2026-04-21 00:06 35.42111 -120.18128 25810 ft 380 kts 146°
2026-04-21 00:06 35.40097 -120.16035 25493 ft 379 kts 146°
2026-04-21 00:07 35.38087 -120.13944 25184 ft 378 kts 146°
2026-04-21 00:07 35.36079 -120.11867 24877 ft 377 kts 146°
2026-04-21 00:07 35.34081 -120.09785 24576 ft 376 kts 146°
2026-04-21 00:07 35.32089 -120.07723 24275 ft 375 kts 146°
2026-04-21 00:08 35.30094 -120.05658 24009 ft 373 kts 146°
2026-04-21 00:08 35.28134 -120.03622 23996 ft 365 kts 146°
2026-04-21 00:08 35.26239 -120.01658 23986 ft 358 kts 147°
2026-04-21 00:08 35.24331 -119.99694 23984 ft 352 kts 147°
2026-04-21 00:09 35.22477 -119.97772 23970 ft 348 kts 147°
2026-04-21 00:09 35.20632 -119.95870 23972 ft 344 kts 147°
2026-04-21 00:09 35.18839 -119.94020 23968 ft 342 kts 147°
2026-04-21 00:09 35.17010 -119.92137 23969 ft 345 kts 147°
2026-04-21 00:10 35.15162 -119.90238 23971 ft 348 kts 146°
2026-04-21 00:10 35.13314 -119.88321 23967 ft 350 kts 146°
2026-04-21 00:10 35.11446 -119.86405 23967 ft 352 kts 147°
2026-04-21 00:10 35.09569 -119.84475 23966 ft 354 kts 146°
2026-04-21 00:11 35.07682 -119.82532 23966 ft 356 kts 146°
2026-04-21 00:11 35.05784 -119.80581 23966 ft 357 kts 146°
2026-04-21 00:11 35.03882 -119.78624 23964 ft 358 kts 147°
2026-04-21 00:11 35.01975 -119.76672 23964 ft 359 kts 146°
2026-04-21 00:12 35.00088 -119.74736 23963 ft 360 kts 146°
2026-04-21 00:12 34.98147 -119.72743 23962 ft 360 kts 146°
2026-04-21 00:12 34.96251 -119.70805 23810 ft 365 kts 146°
2026-04-21 00:12 34.94280 -119.68789 23360 ft 376 kts 146°
2026-04-21 00:13 34.92262 -119.66730 22883 ft 376 kts 146°
2026-04-21 00:13 34.90283 -119.64686 22425 ft 371 kts 146°
2026-04-21 00:13 34.88315 -119.62676 21949 ft 366 kts 146°
2026-04-21 00:13 34.86543 -119.60427 21511 ft 372 kts 135°
2026-04-21 00:14 34.84940 -119.58000 21060 ft 374 kts 136°
2026-04-21 00:14 34.83267 -119.55574 20601 ft 377 kts 136°
2026-04-21 00:14 34.81606 -119.53090 20134 ft 379 kts 135°
2026-04-21 00:14 34.79959 -119.50621 19676 ft 380 kts 135°
2026-04-21 00:15 34.78324 -119.48176 19216 ft 365 kts 136°
2026-04-21 00:15 34.76739 -119.45825 18776 ft 353 kts 136°
2026-04-21 00:15 34.75229 -119.43519 18346 ft 345 kts 135°
2026-04-21 00:15 34.73759 -119.41243 17881 ft 340 kts 135°
2026-04-21 00:16 34.72297 -119.39011 17472 ft 339 kts 135°
2026-04-21 00:16 34.70799 -119.36750 17058 ft 347 kts 135°
2026-04-21 00:16 34.69284 -119.34436 16629 ft 353 kts 134°
2026-04-21 00:16 34.67748 -119.32086 16196 ft 357 kts 134°
2026-04-21 00:17 34.66214 -119.29750 15760 ft 361 kts 134°
2026-04-21 00:17 34.64679 -119.27415 15314 ft 345 kts 133°
2026-04-21 00:17 34.63417 -119.25000 14899 ft 334 kts 123°
2026-04-21 00:17 34.62302 -119.22612 14526 ft 317 kts 126°
2026-04-21 00:18 34.61107 -119.20362 14131 ft 318 kts 129°
2026-04-21 00:18 34.59940 -119.18073 13716 ft 321 kts 125°
2026-04-21 00:18 34.58837 -119.15716 13309 ft 318 kts 124°
2026-04-21 00:18 34.57706 -119.13419 12916 ft 317 kts 126°
2026-04-21 00:19 34.56711 -119.11039 12520 ft 319 kts 114°
2026-04-21 00:19 34.56017 -119.08496 12130 ft 315 kts 115°
2026-04-21 00:19 34.54979 -119.06199 11754 ft 308 kts 128°
2026-04-21 00:19 34.53651 -119.04229 11383 ft 303 kts 139°
2026-04-21 00:20 34.52026 -119.02636 11012 ft 299 kts 149°
2026-04-21 00:20 34.50285 -119.01267 10645 ft 298 kts 149°
2026-04-21 00:20 34.48573 -118.99851 10290 ft 298 kts 148°
2026-04-21 00:20 34.46854 -118.98435 9915 ft 299 kts 148°
2026-04-21 00:21 34.45131 -118.97032 9534 ft 299 kts 148°
2026-04-21 00:21 34.43403 -118.95627 9161 ft 298 kts 148°
2026-04-21 00:21 34.41750 -118.94121 8777 ft 298 kts 138°
2026-04-21 00:21 34.40711 -118.91947 8349 ft 303 kts 109°
2026-04-21 00:22 34.40641 -118.89454 8030 ft 294 kts 81°
2026-04-21 00:22 34.41242 -118.87178 7905 ft 278 kts 73°
2026-04-21 00:22 34.41896 -118.85009 7623 ft 271 kts 72°
2026-04-21 00:22 34.42567 -118.82904 7342 ft 264 kts 71°
2026-04-21 00:23 34.43220 -118.80858 7073 ft 260 kts 71°
2026-04-21 00:23 34.43861 -118.78820 6804 ft 258 kts 71°
2026-04-21 00:23 34.44515 -118.76813 6531 ft 253 kts 72°
2026-04-21 00:23 34.45117 -118.74854 6262 ft 251 kts 72°
2026-04-21 00:24 34.45737 -118.72905 6009 ft 243 kts 71°
2026-04-21 00:24 34.46332 -118.71064 6000 ft 229 kts 71°
2026-04-21 00:24 34.46907 -118.69269 6001 ft 228 kts 72°
2026-04-21 00:24 34.47491 -118.67459 5892 ft 237 kts 72°
2026-04-21 00:25 34.48112 -118.65547 5723 ft 252 kts 71°
2026-04-21 00:25 34.48759 -118.63518 5554 ft 259 kts 71°
2026-04-21 00:25 34.49407 -118.61511 5379 ft 249 kts 71°
2026-04-21 00:25 34.50008 -118.59614 5221 ft 239 kts 73°
2026-04-21 00:26 34.50233 -118.57680 5018 ft 224 kts 104°
2026-04-21 00:26 34.49548 -118.56155 5003 ft 201 kts 139°
2026-04-21 00:26 34.48544 -118.55015 5002 ft 199 kts 141°
2026-04-21 00:26 34.47536 -118.53863 5004 ft 198 kts 141°
2026-04-21 00:27 34.46518 -118.52739 5005 ft 196 kts 143°
2026-04-21 00:27 34.45341 -118.51976 5003 ft 191 kts 161°
2026-04-21 00:27 34.44108 -118.51376 5007 ft 190 kts 165°
2026-04-21 00:27 34.42818 -118.51162 5022 ft 187 kts 177°
2026-04-21 00:28 34.41519 -118.50989 5015 ft 188 kts 176°
2026-04-21 00:28 34.40213 -118.50873 4996 ft 188 kts 178°
2026-04-21 00:28 34.38890 -118.50747 4758 ft 196 kts 176°
2026-04-21 00:28 34.37520 -118.50605 4444 ft 194 kts 177°
2026-04-21 00:29 34.36211 -118.50499 4154 ft 188 kts 178°
2026-04-21 00:29 34.34955 -118.50359 3873 ft 181 kts 177°
2026-04-21 00:29 34.33748 -118.50255 3580 ft 163 kts 178°
2026-04-21 00:29 34.32705 -118.50151 3359 ft 142 kts 177°
2026-04-21 00:30 34.31760 -118.50062 3152 ft 130 kts 180°
2026-04-21 00:30 34.30854 -118.49978 2947 ft 131 kts 178°
2026-04-21 00:30 34.29957 -118.49891 2758 ft 129 kts 182°
2026-04-21 00:30 34.29049 -118.49820 2559 ft 132 kts 177°
2026-04-21 00:31 34.28139 -118.49710 2319 ft 130 kts 177°
2026-04-21 00:31 34.27244 -118.49645 2127 ft 129 kts 177°
2026-04-21 00:31 34.26366 -118.49542 1927 ft 127 kts 176°
2026-04-21 00:31 34.25550 -118.49487 1733 ft 126 kts 176°
2026-04-21 00:32 34.24687 -118.49392 1549 ft 125 kts 172°
2026-04-21 00:32 34.23821 -118.49293 1355 ft 126 kts 174°
2026-04-21 00:32 34.22955 -118.49240 1161 ft 121 kts 172°
2026-04-21 00:32 34.22165 -118.49148 995 ft 104 kts 174°
2026-04-21 00:33 34.21478 -118.49082 806 ft 92 kts 170°
2026-04-21 00:33 34.20954 -118.49035 787 ft 46 kts 176°
2026-04-21 00:33 34.20694 -118.49019 781 ft 21 kts 199°
2026-04-21 00:33 34.20658 -118.49101 778 ft 1 kts 251°
2026-04-21 00:34 34.20657 -118.49105 778 ft 0 kts 248°
2026-04-21 00:34 34.20651 -118.49115 778 ft 5 kts 222°
2026-04-21 00:35 34.20601 -118.49121 776 ft 10 kts 174°
2026-04-21 00:35 34.20521 -118.49111 773 ft 13 kts 174°
2026-04-21 00:35 34.20438 -118.49106 770 ft 8 kts 203°
2026-04-21 00:35 34.20424 -118.49139 770 ft 4 kts 257°
2026-04-21 00:36 34.20394 -118.49147 768 ft 8 kts 172°
2026-04-21 00:36 34.20327 -118.49134 764 ft 4 kts 171°
2026-04-21 00:36 34.20276 -118.49120 761 ft 10 kts 163°
2026-04-21 00:36 34.20226 -118.49142 758 ft 5 kts 232°
2026-04-21 00:37 34.20222 -118.49151 757 ft 1 kts 250°
2026-04-21 00:37 34.20227 -118.49176 759 ft 5 kts 326°
2026-04-21 00:37 34.20235 -118.49180 760 ft 0 kts
2026-04-21 00:37 34.20244 -118.49179 760 ft 0 kts